CAPE
1827 1924 2120 2207 2313 2426 2408 2459 2413 2444 2341 2307 2132 2214 2022 2246 2264 2198 1905 2024 2050 1734 1592 1822 1689 2152 2025 2018 1913 1980 2152 1948 1595 1589 1651 1854 1791 1708 1628 1396 1297 1263 1322 1277 1138 1007 835 838 760 731 697 351 116 0 0 0 0 0 0 21 80 0
1686 1750 1906 2061 2206 2345 2339 2339 2412 2414 2373 2218 2121 2276 2193 2168 2214 1723 1671 1872 2024 1930 1928 1790 1859 1880 1987 1912 2080 2085 2138 1767 1615 1669 1915 1708 1671 1707 1625 1454 1364 1142 1286 1266 1149 600 180 273 525 599 499 267 0 0 0 0 0 0 0 3 50 15
1521 1670 1820 1887 2111 2247 2244 2257 2334 2396 2357 2358 2233 1916 2080 2134 1994 1812 1594 1733 2070 2078 1995 1881 1884 1833 1693 2010 1992 2198 2134 1622 1480 1686 1977 1724 1830 1759 1585 1518 1409 1381 1266 1229 813 447 0 0 39 254 122 5 0 0 0 0 0 0 0 3 0 140
1513 1521 1645 1870 1997 2027 2060 2186 2255 2322 2348 2254 1920 2053 2160 2105 1921 1912 1742 1879 1918 2002 1938 1918 2102 1616 1604 1922 2016 2127 2045 1271 1248 1798 1948 1671 1802 1740 1644 1550 1461 1355 1216 900 590 339 14 0 0 0 0 0 0 0 0 0 0 0 0 112 1 281
1703 1575 1532 1646 1808 1940 2037 2110 2114 2212 2254 2258 1887 2104 2189 2091 1991 2066 2093 1904 1848 1870 1923 1880 1691 1363 1485 1722 1823 1936 1684 1439 1278 1421 1604 1526 1451 1477 1303 1223 1214 1156 973 704 502 217 26 8 0 0 0 0 0 0 0 0 0 0 0 29 6 449
1876 1881 1792 1636 1568 1760 1960 1957 2054 2069 2133 2149 1900 2089 2034 2056 2122 2120 2124 1970 1818 1830 1815 1925 1642 1589 1667 1666 1703 1784 1680 1401 1549 1456 1387 1329 1296 1326 1246 1038 882 817 774 673 465 138 12 36 0 0 0 0 0 0 0 0 0 0 0 6 24 557
1844 1901 1853 1755 1742 1820 1749 1860 1940 2036 1954 1996 1980 1963 1888 1841 1773 1864 2051 2042 1853 1734 1737 1823 1734 1393 1568 1633 1598 1671 1695 1509 1573 1377 1305 1139 1164 1171 1116 926 778 705 702 612 424 256 0 0 0 0 0 0 0 0 0 0 0 0 0 1 47 715
1816 1828 1751 1716 1757 1853 1867 1811 1829 1667 1732 1768 1830 1654 1475 1469 1314 1250 1628 1971 1964 1699 1635 1638 1703 1391 1273 1574 1519 1554 1440 1545 1443 1290 1206 940 868 1026 928 822 719 695 578 410 238 97 1 0 0 0 0 0 0 0 0 0 0 0 0 0 23 668
1720 1701 1727 1726 1802 1810 1790 1806 1721 1722 1454 1688 1698 1612 1410 1337 1214 1134 1352 1722 1897 1780 1601 1534 1495 1378 1203 1377 1378 1398 1157 1225 1353 1207 1140 854 656 780 788 697 560 378 301 175 58 66 29 0 0 0 0 0 0 0 0 0 0 0 0 0 6 336
1535 1658 1740 1811 1851 1711 1651 1710 1722 1747 1668 1771 1461 1468 1460 1403 1316 1180 1121 1384 1577 1643 1510 1397 1288 1160 1028 1127 1150 1131 1112 1128 1027 1199 1138 925 635 540 535 386 0 0 119 57 41 68 32 10 0 0 0 0 0 0 0 0 0 0 0 0 2 71
1584 1702 1725 1778 1614 1615 1599 1626 1678 1679 1655 1562 1464 1546 1429 1357 1366 1324 1248 1106 1076 1122 1138 1148 1092 999 876 780 926 1042 968 977 836 1000 1171 992 801 647 533 419 0 0 0 14 13 13 12 8 0 0 0 0 0 0 0 0 0 0 0 0 0 12
1756 1679 1599 1524 1468 1501 1535 1568 1574 1580 1498 1438 1452 1278 1366 1341 1087 1243 1183 1240 1212 1155 1089 1006 934 906 890 862 839 889 957 921 1007 923 903 964 743 564 423 369 376 186 0 0 45 54 50 13 28 12 0 0 0 0 0 0 0 0 0 0 0 2
1572 1438 1316 1350 1441 1445 1435 1372 1437 1465 1362 1317 1163 1130 1097 1165 1041 1198 1027 1101 1236 1290 1268 1103 1016 970 922 781 586 604 726 820 980 907 709 635 723 629 429 430 321 199 0 0 195 228 245 222 148 107 0 0 0 0 0 0 0 0 0 0 0 0
0 0 31 907 1174 1158 1129 1147 1142 1122 1263 1161 1078 966 919 1130 1150 1095 1062 1013 997 1190 1174 1168 1054 1016 866 723 535 614 754 733 903 818 840 770 524 578 449 343 378 335 602 213 138 256 276 246 251 248 0 0 0 0 0 0 0 0 0 0 0 0
0 0 0 562 831 264 0 0 0 0 0 899 830 885 1152 1210 1079 997 940 743 777 1051 1132 1019 920 958 775 752 739 611 728 789 658 632 576 685 711 576 430 320 251 253 278 277 42 198 261 273 252 238 167 257 0 0 0 0 0 0 0 0 0 0
0 0 0 197 0 0 0 0 0 0 153 685 600 402 469 909 1097 1062 666 723 867 881 692 577 794 760 534 762 662 748 659 724 659 811 716 692 714 758 444 151 139 160 207 218 149 160 0 239 211 246 266 0 0 0 0 0 0 0 0 0 0 0
0 0 0 0 0 0 0 0 0 0 0 0 0 0 0 0 851 1148 928 863 609 633 730 447 426 558 695 620 677 786 719 929 757 630 749 737 728 764 654 291 105 125 274 200 112 123 97 9 168 474 154 0 0 0 0 0 0 0 0 0 0 0
0 0 0 0 0 0 0 0 0 0 0 0 0 0 0 408 1080 967 210 127 371 327 276 299 591 622 694 736 596 661 635 463 580 827 850 846 798 798 780 564 348 179 142 199 231 123 68 180 258 455 461 141 0 2 2 0 0 0 0 0 0 0
0 0 0 0 0 0 0 0 0 0 0 0 0 0 0 0 0 0 0 0 0 0 0 0 0 564 701 598 490 344 483 584 736 791 792 770 698 784 721 750 646 380 196 148 249 113 128 163 189 370 462 438 392 89 10 4 0 0 0 0 0 0
0 0 0 0 0 0 0 0 0 0 0 0 0 0 0 0 0 0 0 0 0 0 0 0 0 0 0 89 359 110 242 446 446 569 794 774 733 607 556 535 442 293 254 319 264 148 162 214 167 173 405 445 431 419 304 112 2 0 0 0 0 0
0 0 0 0 0 0 0 0 0 0 0 0 0 0 0 0 0 0 0 0 0 0 0 0 0 0 0 0 0 0 32 252 296 130 251 458 506 573 563 617 586 526 402 383 296 234 338 405 255 196 268 312 366 346 369 360 225 29 0 0 0 0
0 0 0 0 0 0 0 0 0 0 0 0 0 0 0 0 0 0 0 0 0 0 0 0 0 0 0 0 0 0 0 294 249 236 304 279 233 253 348 467 420 625 533 569 476 385 318 209 386 292 177 271 266 258 306 276 249 253 0 0 0 0
0 0 0 0 0 0 0 0 0 0 0 0 0 0 0 0 0 0 0 0 0 0 0 0 0 0 0 0 0 0 0 0 10 86 116 243 224 201 167 232 298 354 470 487 395 415 422 256 276 372 309 218 235 226 168 126 191 197 14 0 0 0
0 0 0 0 0 0 0 0 0 0 0 0 0 0 0 0 0 0 0 0 0 0 0 0 0 0 0 0 0 0 0 0 0 0 0 0 16 22 154 35 55 43 58 193 131 236 238 329 411 360 410 285 279 313 248 176 143 186 168 36 0 0
0 0 0 0 0 0 0 0 0 0 0 0 0 0 0 0 0 5 0 0 0 0 0 0 0 0 0 0 0 0 0 0 0 0 0 0 0 0 0 13 14 14 20 28 158 182 309 180 229 260 245 282 412 333 219 180 177 210 152 170 0 15
0 0 0 0 0 0 0 0 0 0 0 0 0 0 0 0 0 0 0 0 0 0 0 0 0 0 0 0 0 0 0 0 0 0 0 0 0 0 0 0 0 3 5 3 54 50 89 105 111 125 148 78 109 268 19 130 65 137 113 80 0 40
0 0 0 0 0 0 0 0 0 0 0 0 0 0 0 0 0 0 0 0 0 0 0 0 0 0 0 0 0 0 0 0 0 0 0 0 0 0 0 0 0 1 1 1 0 0 0 7 40 94 171 186 88 69 94 28 114 24 119 110 0 0
0 0 0 0 0 0 0 0 0 0 0 0 0 0 0 0 0 0 0 0 0 0 0 0 0 0 0 0 0 0 0 0 0 0 0 0 0 0 0 0 0 0 0 0 0 0 0 0 0 0 0 66 182 134 130 142 208 76 18 8 94 86
0 0 0 0 0 0 0 0 0 0 0 0 0 0 0 0 0 0 0 0 0 0 0 0 0 0 0 0 0 0 0 0 0 0 0 0 0 0 0 0 0 0 0 0 0 0 0 0 0 0 0 0 13 96 90 115 120 98 52 18 11 4
0 0 0 0 0 0 0 0 0 0 0 0 0 0 0 0 0 0 0 0 0 0 0 0 0 0 0 0 0 0 0 0 0 0 0 0 0 0 0 0 0 0 0 0 0 0 0 0 0 0 0 1 2 6 18 131 169 157 118 108 24 6
0 0 0 0 0 0 0 0 0 0 0 0 0 0 0 0 0 0 0 0 0 0 0 0 0 0 0 0 0 0 0 0 0 0 0 0 0 0 0 0 0 0 0 0 0 0 0 0 0 0 0 0 0 3 11 8 20 35 50 46 30 33
0 0 0 0 0 0 0 0 0 0 0 0 0 0 0 0 0 0 0 0 0 0 0 0 0 0 0 0 0 0 0 0 0 0 0 0 0 0 0 0 0 0 0 0 0 0 0 0 0 0 0 0 0 1 15 22 38 43 35 41 53 39
0 0 0 0 0 0 0 0 0 0 0 0 0 0 0 0 0 0 0 0 0 0 0 0 0 0 0 0 0 0 0 0 0 0 0 0 0 0 0 0 0 0 0 0 0 0 0 0 0 0 0 0 0 0 0 2 29 47 54 49 42 21
0 0 0 0 0 0 0 0 0 0 0 0 0 0 0 0 0 0 0 0 0 0 0 0 0 0 0 0 0 0 0 0 0 0 0 0 0 0 0 0 0 0 0 0 0 0 0 0 0 0 0 0 0 0 0 0 0 7 22 20 12 20
0 0 0 0 0 0 0 0 0 0 0 0 0 0 0 0 0 0 0 0 0 0 0 0 0 0 0 0 0 0 0 0 0 0 0 0 0 0 0 0 0 0 0 0 0 0 0 0 0 0 0 0 0 0 0 0 0 0 3 25 33 31
2 0 0 0 0 0 0 0 0 0 0 0 0 0 0 0 0 0 0 0 0 0 0 0 0 0 0 0 0 0 0 0 0 0 0 0 0 0 0 0 0 0 0 0 0 0 0 0 0 0 0 0 0 0 0 0 0 0 0 12 27 35
51 5 0 0 0 0 0 0 0 0 0 0 0 0 0 0 0 0 0 0 0 0 0 0 0 0 0 0 0 0 0 0 0 0 0 0 0 0 0 0 0 0 0 0 0 0 0 0 0 0 0 0 0 0 0 0 0 0 0 3 10 22
Wind_Speed
23 23 22 21 21 20 19 23 22 22 22 21 22 22 21 22 22 23 25 26 27 26 26 26 27 25 28 25 25 24 23 22 21 22 22 22 21 19 19 19 18 18 18 21 25 27 26 27 26 22 20 21 25 nan nan nan nan nan nan nan nan nan
23 22 21 20 19 18 18 20 18 18 18 19 19 18 18 19 21 23 22 24 24 25 25 25 25 24 25 24 23 23 22 21 21 22 22 21 21 19 18 19 18 18 18 20 25 28 27 28 26 23 22 22 nan nan nan nan nan nan nan nan nan nan
21 20 20 18 17 17 18 18 17 17 17 17 16 16 17 18 20 21 23 21 23 23 23 22 22 23 23 23 22 22 20 19 21 22 22 22 20 19 18 18 17 17 18 20 27 29 nan nan nan 23 21 nan nan nan nan nan nan nan nan nan nan 23
20 19 18 16 16 17 17 17 17 17 17 17 17 18 18 18 18 19 20 21 21 20 20 19 19 22 22 22 20 20 19 19 20 21 22 20 20 20 19 17 17 16 21 25 27 28 nan nan nan nan nan nan nan nan nan nan nan nan nan 26 nan 23
19 17 17 15 16 17 17 18 18 18 18 18 18 19 19 18 17 18 19 19 19 18 19 18 19 20 19 20 20 19 19 20 20 20 20 21 22 22 22 21 20 20 24 24 26 27 nan nan nan nan nan nan nan nan nan nan nan nan nan nan nan 23
19 17 16 16 17 17 19 18 19 18 19 18 19 19 19 17 17 17 18 18 18 19 19 18 18 18 19 19 19 19 20 20 21 21 21 21 23 24 25 25 23 21 23 24 24 26 nan nan nan nan nan nan nan nan nan nan nan nan nan nan nan 21
19 18 18 18 18 18 19 18 18 18 19 19 20 20 18 18 17 17 17 18 19 18 19 18 17 17 17 18 18 18 20 21 21 21 22 23 23 25 26 26 25 23 24 23 24 26 nan nan nan nan nan nan nan nan nan nan nan nan nan nan nan 18
19 19 18 19 20 20 20 19 19 18 18 19 20 20 19 19 19 19 18 18 18 19 19 18 17 16 16 18 17 18 19 21 22 21 22 23 24 25 27 28 27 27 25 24 24 nan nan nan nan nan nan nan nan nan nan nan nan nan nan nan nan 18
20 20 19 20 21 21 21 21 20 21 18 20 21 20 20 20 22 21 20 19 19 20 19 18 17 15 17 18 18 17 17 18 22 23 24 24 25 26 27 28 28 28 27 26 nan nan nan nan nan nan nan nan nan nan nan nan nan nan nan nan nan 19
20 21 21 22 22 23 22 22 22 21 20 22 22 20 21 21 21 22 22 20 20 21 20 19 17 16 18 18 17 17 16 17 22 24 24 24 27 28 29 30 nan nan 29 nan nan nan nan nan nan nan nan nan nan nan nan nan nan nan nan nan nan nan
21 21 23 24 23 24 23 23 22 22 23 23 23 24 23 22 22 20 20 21 21 21 21 20 18 17 17 19 18 17 16 20 22 22 25 28 31 30 30 30 nan nan nan nan nan nan nan nan nan nan nan nan nan nan nan nan nan nan nan nan nan nan
22 22 24 25 24 25 24 24 24 24 23 22 24 26 22 19 18 20 19 20 21 22 21 21 18 18 18 19 18 17 19 20 17 22 26 29 29 32 32 31 30 29 nan nan nan nan nan nan nan nan nan nan nan nan nan nan nan nan nan nan nan nan
24 24 25 26 26 25 25 25 25 24 23 23 23 26 22 20 20 23 19 20 22 22 22 22 19 18 18 20 18 19 20 15 16 23 29 23 24 30 33 33 33 32 nan nan 30 30 29 28 28 28 nan nan nan nan nan nan nan nan nan nan nan nan
nan nan nan 27 27 27 26 25 25 25 24 24 25 27 23 22 22 24 24 23 21 22 24 23 22 19 20 23 22 20 15 14 17 23 26 21 19 26 31 31 32 33 33 35 33 32 31 29 28 28 nan nan nan nan nan nan nan nan nan nan nan nan
nan nan nan 29 29 28 nan nan nan nan nan 26 26 26 25 25 23 27 25 24 23 24 25 24 23 21 21 25 24 18 15 19 20 21 21 22 22 25 23 25 31 33 33 35 nan 33 32 30 29 28 27 27 nan nan nan nan nan nan nan nan nan nan
nan nan nan 30 nan nan nan nan nan nan 29 28 27 27 27 25 27 28 28 27 26 26 25 25 24 24 26 27 18 15 22 24 20 15 16 20 23 22 19 23 27 31 31 32 35 35 nan 34 33 29 28 nan nan nan nan nan nan nan nan nan nan nan
nan nan nan nan nan nan nan nan nan nan nan nan nan nan nan nan 30 30 30 29 28 27 27 26 26 28 28 20 18 21 23 26 17 13 14 18 22 23 21 23 27 29 30 33 35 36 nan nan 34 31 29 nan nan nan nan nan nan nan nan nan nan nan
nan nan nan nan nan nan nan nan nan nan nan nan nan nan nan 32 33 32 32 31 30 31 30 29 27 28 28 21 21 22 27 24 15 15 15 20 22 22 23 25 27 29 29 30 34 39 nan 41 36 35 34 32 nan nan nan nan nan nan nan nan nan nan
nan nan nan nan nan nan nan nan nan nan nan nan nan nan nan nan nan nan nan nan nan nan nan nan nan 28 27 24 25 26 26 18 23 22 23 24 24 21 18 21 23 25 23 26 35 39 40 41 38 36 36 36 34 nan nan nan nan nan nan nan nan nan
nan nan nan nan nan nan nan nan nan nan nan nan nan nan nan nan nan nan nan nan nan nan nan nan nan nan nan nan 27 27 25 24 24 24 24 23 23 20 19 18 20 21 18 22 31 33 35 37 37 37 37 37 35 33 32 34 nan nan nan nan nan nan
nan nan nan nan nan nan nan nan nan nan nan nan nan nan nan nan nan nan nan nan nan nan nan nan nan nan nan nan nan nan nan 26 24 26 26 26 24 20 18 20 21 22 17 16 24 30 32 31 33 39 41 40 38 35 33 33 33 nan nan nan nan nan
nan nan nan nan nan nan nan nan nan nan nan nan nan nan nan nan nan nan nan nan nan nan nan nan nan nan nan nan nan nan nan 29 29 28 30 28 25 21 19 21 23 22 19 21 22 27 29 35 36 39 41 41 39 36 34 33 34 35 nan nan nan nan
nan nan nan nan nan nan nan nan nan nan nan nan nan nan nan nan nan nan nan nan nan nan nan nan nan nan nan nan nan nan nan nan nan nan 31 31 29 25 22 22 22 21 21 24 21 20 24 29 32 39 35 36 39 41 39 39 37 36 nan nan nan nan
nan nan nan nan nan nan nan nan nan nan nan nan nan nan nan nan nan nan nan nan nan nan nan nan nan nan nan nan nan nan nan nan nan nan nan nan nan nan 27 nan nan nan nan 22 21 21 22 24 27 32 33 34 39 40 39 38 39 36 38 nan nan nan
nan nan nan nan nan nan nan nan nan nan nan nan nan nan nan nan nan nan nan nan nan nan nan nan nan nan nan nan nan nan nan nan nan nan nan nan nan nan nan nan nan nan nan nan 24 22 25 26 22 24 29 34 37 38 37 39 41 38 41 39 nan nan
nan nan nan nan nan nan nan nan nan nan nan nan nan nan nan nan nan nan nan nan nan nan nan nan nan nan nan nan nan nan nan nan nan nan nan nan nan nan nan nan nan nan nan nan nan nan nan 27 26 27 26 nan 34 37 nan 41 nan 40 42 nan nan nan
nan nan nan nan nan nan nan nan nan nan nan nan nan nan nan nan nan nan nan nan nan nan nan nan nan nan nan nan nan nan nan nan nan nan nan nan nan nan nan nan nan nan nan nan nan nan nan nan nan nan 28 29 nan nan nan nan 38 nan 40 41 nan nan
nan nan nan nan nan nan nan nan nan nan nan nan nan nan nan nan nan nan nan nan nan nan nan nan nan nan nan nan nan nan nan nan nan nan nan nan nan nan nan nan nan nan nan nan nan nan nan nan nan nan nan nan 29 29 29 31 32 nan nan nan nan nan
nan nan nan nan nan nan nan nan nan nan nan nan nan nan nan nan nan nan nan nan nan nan nan nan nan nan nan nan nan nan nan nan nan nan nan nan nan nan nan nan nan nan nan nan nan nan nan nan nan nan nan nan nan nan nan 32 32 nan nan nan nan nan
nan nan nan nan nan nan nan nan nan nan nan nan nan nan nan nan nan nan nan nan nan nan nan nan nan nan nan nan nan nan nan nan nan nan nan nan nan nan nan nan nan nan nan nan nan nan nan nan nan nan nan nan nan nan nan 34 34 35 34 33 nan nan
nan nan nan nan nan nan nan nan nan nan nan nan nan nan nan nan nan nan nan nan nan nan nan nan nan nan nan nan nan nan nan nan nan nan nan nan nan nan nan nan nan nan nan nan nan nan nan nan nan nan nan nan nan nan nan nan nan nan nan nan nan nan
nan nan nan nan nan nan nan nan nan nan nan nan nan nan nan nan nan nan nan nan nan nan nan nan nan nan nan nan nan nan nan nan nan nan nan nan nan nan nan nan nan nan nan nan nan nan nan nan nan nan nan nan nan nan nan nan nan nan nan nan nan nan
nan nan nan nan nan nan nan nan nan nan nan nan nan nan nan nan nan nan nan nan nan nan nan nan nan nan nan nan nan nan nan nan nan nan nan nan nan nan nan nan nan nan nan nan nan nan nan nan nan nan nan nan nan nan nan nan nan nan nan nan nan nan
nan nan nan nan nan nan nan nan nan nan nan nan nan nan nan nan nan nan nan nan nan nan nan nan nan nan nan nan nan nan nan nan nan nan nan nan nan nan nan nan nan nan nan nan nan nan nan nan nan nan nan nan nan nan nan nan nan nan nan nan nan nan
nan nan nan nan nan nan nan nan nan nan nan nan nan nan nan nan nan nan nan nan nan nan nan nan nan nan nan nan nan nan nan nan nan nan nan nan nan nan nan nan nan nan nan nan nan nan nan nan nan nan nan nan nan nan nan nan nan nan nan nan nan nan
nan nan nan nan nan nan nan nan nan nan nan nan nan nan nan nan nan nan nan nan nan nan nan nan nan nan nan nan nan nan nan nan nan nan nan nan nan nan nan nan nan nan nan nan nan nan nan nan nan nan nan nan nan nan nan nan nan nan nan nan nan nan
nan nan nan nan nan nan nan nan nan nan nan nan nan nan nan nan nan nan nan nan nan nan nan nan nan nan nan nan nan nan nan nan nan nan nan nan nan nan nan nan nan nan nan nan nan nan nan nan nan nan nan nan nan nan nan nan nan nan nan nan nan nan
Wind_Direction
278 279 279 280 280 282 289 296 291 291 291 289 287 293 296 296 289 286 285 282 280 275 274 273 277 275 284 276 279 280 282 287 290 282 274 264 258 259 258 255 258 256 241 232 237 235 232 233 236 236 236 235 238 nan nan nan nan nan nan nan nan nan
278 280 282 282 283 283 282 284 279 281 281 283 287 288 286 276 279 269 275 282 274 274 274 274 277 280 272 274 278 283 283 289 288 281 271 264 258 256 252 249 253 255 243 231 235 231 227 232 234 233 234 234 nan nan nan nan nan nan nan nan nan nan
278 281 283 283 281 281 278 277 276 276 275 285 285 281 274 274 271 272 276 275 277 278 280 281 280 282 278 281 278 285 286 288 286 279 269 263 258 256 253 246 249 247 240 229 230 231 nan nan nan 231 230 nan nan nan nan nan nan nan nan nan nan 242
280 281 280 278 275 272 273 274 274 272 273 273 277 271 272 274 273 275 277 277 278 281 283 284 292 299 292 278 278 284 285 286 276 277 271 258 256 252 260 258 251 244 234 228 228 231 nan nan nan nan nan nan nan nan nan nan nan nan nan 238 nan 244
273 275 273 274 273 272 273 271 271 272 273 274 273 272 272 273 277 277 276 277 278 280 280 280 279 281 278 276 272 272 269 264 264 260 265 245 241 238 244 242 241 239 234 228 224 227 nan nan nan nan nan nan nan nan nan nan nan nan nan nan nan 248
271 269 269 267 268 273 272 271 271 274 273 273 273 273 273 276 280 279 277 276 275 276 279 280 279 278 280 277 273 268 268 262 258 259 256 248 243 239 238 239 239 239 237 231 227 225 nan nan nan nan nan nan nan nan nan nan nan nan nan nan nan 255
268 264 262 263 266 263 269 269 272 274 276 274 272 273 275 275 277 278 278 278 279 280 280 280 281 278 276 273 273 268 266 262 259 257 256 251 243 239 238 239 239 238 237 233 227 225 nan nan nan nan nan nan nan nan nan nan nan nan nan nan nan 259
263 262 262 265 264 264 265 266 268 269 263 275 273 274 277 278 275 273 276 281 282 284 284 282 282 282 276 268 266 263 262 263 261 257 254 254 248 242 239 238 238 237 239 236 231 nan nan nan nan nan nan nan nan nan nan nan nan nan nan nan nan 255
262 263 264 266 265 265 265 266 271 273 273 277 271 275 277 275 274 273 272 275 279 282 280 283 288 285 274 271 263 261 258 260 261 257 253 253 252 246 241 240 240 240 240 236 nan nan nan nan nan nan nan nan nan nan nan nan nan nan nan nan nan 248
264 268 268 266 268 268 269 269 269 273 275 271 266 266 265 262 262 268 272 273 275 278 282 285 287 283 284 276 274 267 261 257 257 251 252 251 250 248 243 239 nan nan 238 nan nan nan nan nan nan nan nan nan nan nan nan nan nan nan nan nan nan nan
259 263 266 268 270 270 271 272 272 274 270 271 269 267 261 260 268 265 268 274 275 276 279 280 283 284 279 281 279 279 275 264 257 257 253 247 245 247 244 241 nan nan nan nan nan nan nan nan nan nan nan nan nan nan nan nan nan nan nan nan nan nan
257 262 265 269 270 271 272 274 275 275 277 278 274 264 262 264 261 268 269 273 273 276 275 278 278 277 277 276 275 275 269 264 268 266 256 250 248 248 247 243 240 237 nan nan nan nan nan nan nan nan nan nan nan nan nan nan nan nan nan nan nan nan
263 264 269 271 272 272 274 274 276 277 277 276 272 276 280 278 275 272 268 267 270 271 272 272 271 270 272 272 269 265 268 271 268 261 255 247 242 241 244 242 241 236 nan nan 232 232 232 231 228 223 nan nan nan nan nan nan nan nan nan nan nan nan
nan nan nan 272 273 273 274 274 273 275 277 275 270 273 275 273 270 264 263 260 260 264 266 266 269 268 263 261 257 255 258 261 251 251 258 263 261 251 243 240 238 239 237 233 231 232 234 231 230 227 nan nan nan nan nan nan nan nan nan nan nan nan
nan nan nan 271 273 274 nan nan nan nan nan 273 270 273 269 269 268 267 266 264 262 262 262 263 263 268 268 263 258 267 274 254 246 246 255 264 262 255 246 240 241 235 236 235 nan 230 232 231 230 228 227 225 nan nan nan nan nan nan nan nan nan nan
nan nan nan 273 nan nan nan nan nan nan 271 270 268 267 266 271 269 265 266 264 261 260 259 259 259 256 254 254 270 271 258 256 249 253 265 270 266 265 254 242 240 243 236 231 228 227 nan 227 227 225 226 nan nan nan nan nan nan nan nan nan nan nan
nan nan nan nan nan nan nan nan nan nan nan nan nan nan nan nan 267 266 264 262 260 261 261 260 258 259 263 266 265 263 262 261 263 260 268 271 264 257 249 235 236 240 239 230 227 224 nan nan 225 226 229 nan nan nan nan nan nan nan nan nan nan nan
nan nan nan nan nan nan nan nan nan nan nan nan nan nan nan 265 266 267 267 264 262 261 259 258 259 260 262 264 259 257 254 263 274 260 264 263 261 252 243 234 231 234 234 233 228 223 nan 224 224 224 227 228 nan nan nan nan nan nan nan nan nan nan
nan nan nan nan nan nan nan nan nan nan nan nan nan nan nan nan nan nan nan nan nan nan nan nan nan 256 257 252 253 253 261 264 262 261 255 257 260 267 263 248 243 243 241 233 227 226 223 224 221 222 225 226 227 nan nan nan nan nan nan nan nan nan
nan nan nan nan nan nan nan nan nan nan nan nan nan nan nan nan nan nan nan nan nan nan nan nan nan nan nan nan 245 247 250 250 251 255 255 255 252 250 250 253 249 245 241 232 227 224 225 222 219 221 223 225 227 227 229 236 nan nan nan nan nan nan
nan nan nan nan nan nan nan nan nan nan nan nan nan nan nan nan nan nan nan nan nan nan nan nan nan nan nan nan nan nan nan 243 245 250 252 248 250 251 248 246 241 237 232 231 230 229 230 226 223 221 222 227 224 228 228 232 237 nan nan nan nan nan
nan nan nan nan nan nan nan nan nan nan nan nan nan nan nan nan nan nan nan nan nan nan nan nan nan nan nan nan nan nan nan 240 238 239 243 246 246 249 248 244 242 240 239 231 227 227 231 231 226 227 224 222 224 223 229 232 234 235 nan nan nan nan
nan nan nan nan nan nan nan nan nan nan nan nan nan nan nan nan nan nan nan nan nan nan nan nan nan nan nan nan nan nan nan nan nan nan 240 242 245 246 247 245 241 240 237 235 228 226 229 237 229 230 228 223 224 226 225 229 231 232 nan nan nan nan
nan nan nan nan nan nan nan nan nan nan nan nan nan nan nan nan nan nan nan nan nan nan nan nan nan nan nan nan nan nan nan nan nan nan nan nan nan nan 241 nan nan nan nan 243 242 234 228 236 240 235 228 232 229 231 227 230 227 226 234 nan nan nan
nan nan nan nan nan nan nan nan nan nan nan nan nan nan nan nan nan nan nan nan nan nan nan nan nan nan nan nan nan nan nan nan nan nan nan nan nan nan nan nan nan nan nan nan 235 240 239 240 244 245 239 234 232 234 235 231 228 229 232 234 nan nan
nan nan nan nan nan nan nan nan nan nan nan nan nan nan nan nan nan nan nan nan nan nan nan nan nan nan nan nan nan nan nan nan nan nan nan nan nan nan nan nan nan nan nan nan nan nan nan 236 237 240 241 nan 235 233 nan 231 nan 231 230 nan nan nan
nan nan nan nan nan nan nan nan nan nan nan nan nan nan nan nan nan nan nan nan nan nan nan nan nan nan nan nan nan nan nan nan nan nan nan nan nan nan nan nan nan nan nan nan nan nan nan nan nan nan 236 235 nan nan nan nan 237 nan 233 234 nan nan
nan nan nan nan nan nan nan nan nan nan nan nan nan nan nan nan nan nan nan nan nan nan nan nan nan nan nan nan nan nan nan nan nan nan nan nan nan nan nan nan nan nan nan nan nan nan nan nan nan nan nan nan 237 240 239 238 239 nan nan nan nan nan
nan nan nan nan nan nan nan nan nan nan nan nan nan nan nan nan nan nan nan nan nan nan nan nan nan nan nan nan nan nan nan nan nan nan nan nan nan nan nan nan nan nan nan nan nan nan nan nan nan nan nan nan nan nan nan 242 241 nan nan nan nan nan
nan nan nan nan nan nan nan nan nan nan nan nan nan nan nan nan nan nan nan nan nan nan nan nan nan nan nan nan nan nan nan nan nan nan nan nan nan nan nan nan nan nan nan nan nan nan nan nan nan nan nan nan nan nan nan 241 243 242 244 245 nan nan
nan nan nan nan nan nan nan nan nan nan nan nan nan nan nan nan nan nan nan nan nan nan nan nan nan nan nan nan nan nan nan nan nan nan nan nan nan nan nan nan nan nan nan nan nan nan nan nan nan nan nan nan nan nan nan nan nan nan nan nan nan nan
nan nan nan nan nan nan nan nan nan nan nan nan nan nan nan nan nan nan nan nan nan nan nan nan nan nan nan nan nan nan nan nan nan nan nan nan nan nan nan nan nan nan nan nan nan nan nan nan nan nan nan nan nan nan nan nan nan nan nan nan nan nan
nan nan nan nan nan nan nan nan nan nan nan nan nan nan nan nan nan nan nan nan nan nan nan nan nan nan nan nan nan nan nan nan nan nan nan nan nan nan nan nan nan nan nan nan nan nan nan nan nan nan nan nan nan nan nan nan nan nan nan nan nan nan
nan nan nan nan nan nan nan nan nan nan nan nan nan nan nan nan nan nan nan nan nan nan nan nan nan nan nan nan nan nan nan nan nan nan nan nan nan nan nan nan nan nan nan nan nan nan nan nan nan nan nan nan nan nan nan nan nan nan nan nan nan nan
nan nan nan nan nan nan nan nan nan nan nan nan nan nan nan nan nan nan nan nan nan nan nan nan nan nan nan nan nan nan nan nan nan nan nan nan nan nan nan nan nan nan nan nan nan nan nan nan nan nan nan nan nan nan nan nan nan nan nan nan nan nan
nan nan nan nan nan nan nan nan nan nan nan nan nan nan nan nan nan nan nan nan nan nan nan nan nan nan nan nan nan nan nan nan nan nan nan nan nan nan nan nan nan nan nan nan nan nan nan nan nan nan nan nan nan nan nan nan nan nan nan nan nan nan
nan nan nan nan nan nan nan nan nan nan nan nan nan nan nan nan nan nan nan nan nan nan nan nan nan nan nan nan nan nan nan nan nan nan nan nan nan nan nan nan nan nan nan nan nan nan nan nan nan nan nan nan nan nan nan nan nan nan nan nan nan nan